TimeCDT,TemperatureF,Dew PointF,Humidity,Sea Level PressureIn,VisibilityMPH,Wind Direction,Wind SpeedMPH,Gust SpeedMPH,PrecipitationIn,Events,Conditions,WindDirDegrees,DateUTC
12:53 AM,78.1,72.0,81,29.92,10.0,Calm,Calm,-,N/A,,Clear,0,2013-06-14 05:53:00
1:53 AM,75.9,73.0,91,29.92,10.0,Calm,Calm,-,N/A,,Clear,0,2013-06-14 06:53:00
2:53 AM,78.1,73.0,84,29.91,10.0,Calm,Calm,-,N/A,,Mostly Cloudy,0,2013-06-14 07:53:00
3:53 AM,75.9,73.0,91,29.90,10.0,Calm,Calm,-,N/A,,Clear,0,2013-06-14 08:53:00
4:53 AM,77.0,73.0,88,29.88,10.0,North,9.2,-,N/A,,Scattered Clouds,350,2013-06-14 09:53:00
5:53 AM,77.0,73.0,88,29.90,10.0,NW,3.5,-,N/A,,Mostly Cloudy,320,2013-06-14 10:53:00
6:53 AM,77.0,73.0,88,29.92,9.0,Calm,Calm,-,N/A,,Clear,0,2013-06-14 11:53:00
7:41 AM,78.8,73.4,83,29.96,9.0,Variable,3.5,-,N/A,,Mostly Cloudy,0,2013-06-14 12:41:00
7:53 AM,79.0,73.9,84,29.95,9.0,Calm,Calm,-,N/A,,Overcast,0,2013-06-14 12:53:00
8:07 AM,78.8,73.4,83,29.97,9.0,NNW,4.6,-,N/A,,Overcast,340,2013-06-14 13:07:00
8:41 AM,80.6,73.4,79,29.97,10.0,Variable,4.6,-,N/A,,Overcast,0,2013-06-14 13:41:00
8:53 AM,80.1,73.0,79,29.95,10.0,NNE,5.8,-,N/A,,Overcast,20,2013-06-14 13:53:00
9:21 AM,80.6,73.4,79,29.97,10.0,Variable,5.8,-,N/A,,Scattered Clouds,0,2013-06-14 14:21:00
9:53 AM,84.0,73.9,72,29.95,10.0,NNE,6.9,-,N/A,,Unknown,30,2013-06-14 14:53:00
10:53 AM,86.0,73.0,65,29.94,10.0,Variable,6.9,-,N/A,,Partly Cloudy,0,2013-06-14 15:53:00
11:53 AM,87.1,73.9,65,29.93,10.0,North,6.9,-,N/A,,Partly Cloudy,350,2013-06-14 16:53:00
12:53 PM,89.1,73.0,59,29.93,10.0,North,9.2,-,N/A,,Clear,10,2013-06-14 17:53:00
1:53 PM,90.0,72.0,55,29.91,10.0,North,11.5,17.3,N/A,,Scattered Clouds,10,2013-06-14 18:53:00
2:53 PM,89.1,71.1,55,29.91,10.0,NNE,9.2,-,N/A,,Mostly Cloudy,20,2013-06-14 19:53:00
3:53 PM,91.0,70.0,50,29.90,10.0,NNE,9.2,-,N/A,,Clear,20,2013-06-14 20:53:00
4:53 PM,90.0,68.0,48,29.90,10.0,NNW,10.4,16.1,N/A,,Clear,340,2013-06-14 21:53:00
5:53 PM,89.1,66.0,46,29.89,10.0,NNE,10.4,-,N/A,,Clear,20,2013-06-14 22:53:00
6:53 PM,86.0,64.0,48,29.90,10.0,NE,5.8,-,N/A,,Clear,50,2013-06-14 23:53:00
7:53 PM,82.9,66.0,56,29.91,10.0,NNE,4.6,-,N/A,,Clear,20,2013-06-15 00:53:00
8:53 PM,79.0,66.9,66,29.93,10.0,NNW,3.5,-,N/A,,Clear,340,2013-06-15 01:53:00
9:53 PM,78.1,66.9,68,29.96,10.0,NNE,3.5,-,N/A,,Clear,30,2013-06-15 02:53:00
10:53 PM,77.0,64.9,66,29.96,10.0,North,3.5,-,N/A,,Clear,10,2013-06-15 03:53:00
11:53 PM,75.0,64.9,71,29.95,10.0,ENE,3.5,-,N/A,,Clear,60,2013-06-15 04:53:00